This is the latest recevied weather packets stored in our database for station/object OK1LPD-5. If no packets are shown the sender has not sent any weather packets the latest 10 day(s).
| Time | Temp. | Humidity | Pressure | Rain* | Wind** | Luminosity | Snow |
|---|---|---|---|---|---|---|---|
| 1777747809 | 15° C | 40% | 1011.6 hPa | 0 mm | - | - | - |
| 1777747212 | 15.56° C | 39% | 1011.5 hPa | 0 mm | - | - | - |
| 1777746612 | 16.11° C | 38% | 1011.3 hPa | 0 mm | - | - | - |
| 1777746009 | 17.22° C | 36% | 1011.1 hPa | 0 mm | - | - | - |
| 1777745412 | 17.78° C | 34% | 1011.3 hPa | 0 mm | - | - | - |
| 1777744812 | 18.89° C | 32% | 1011 hPa | 0 mm | - | - | - |
| 1777744209 | 19.44° C | 31% | 1011.1 hPa | 0 mm | - | - | - |
| 1777743612 | 20.56° C | 30% | 1011 hPa | 0 mm | - | - | - |
| 1777743011 | 21.11° C | 29% | 1011 hPa | 0 mm | - | - | - |
| 1777742409 | 21.67° C | 27% | 1011 hPa | 0 mm | - | - | - |
| 1777741811 | 22.22° C | 26% | 1010.9 hPa | 0 mm | - | - | - |
| 1777741212 | 22.78° C | 26% | 1011 hPa | 0 mm | - | - | - |
| 1777740609 | 22.78° C | 26% | 1011 hPa | 0 mm | - | - | - |
| 1777740011 | 23.33° C | 26% | 1011 hPa | 0 mm | - | - | - |
| 1777739411 | 23.33° C | 26% | 1011.2 hPa | 0 mm | - | - | - |
| 1777738810 | 23.33° C | 26% | 1011.3 hPa | 0 mm | - | - | - |
| 1777738211 | 23.33° C | 27% | 1011.2 hPa | 0 mm | - | - | - |
| 1777737612 | 23.89° C | 28% | 1011.3 hPa | 0 mm | - | - | - |
| 1777737009 | 23.89° C | 27% | 1011.4 hPa | 0 mm | - | - | - |
| 1777736411 | 23.89° C | 27% | 1011.5 hPa | 0 mm | - | - | - |
| 1777735811 | 23.89° C | 26% | 1011.2 hPa | 0 mm | - | - | - |
| 1777735209 | 23.89° C | 28% | 1011.4 hPa | 0 mm | - | - | - |
| 1777734613 | 24.44° C | 26% | 1011.5 hPa | 0 mm | - | - | - |
| 1777734010 | 24.44° C | 26% | 1011.6 hPa | 0 mm | - | - | - |
| 1777733409 | 25° C | 27% | 1011.7 hPa | 0 mm | - | - | - |
* Rain latest hour (hover to see other rain measurements)
** Current wind speed in m/s (hover to see current wind gust speed)